Regional Weather Roundup
Issued by NWS

Home | Current Version | Previous Version | Text Only | Print | Product List | Glossary Off
Versions: 1 2 3 4 5 6 7 8 9 10 11 12 13 14 15 16 17 18 19 20 21 22 23 24 25 26 27 28 29 30 31 32 33 34 35 36 37 38 39 40 41 42 43 44 45 46 47 48 49 50

000
ASUS43 KLMK 210210
RWRKY
KENTUCKY REGIONAL WEATHER ROUNDUP
NATIONAL WEATHER SERVICE LOUISVILLE KY
1000 PM EDT SAT SEP 20 2014

NOTE "FAIR" INDICATES FEW OR NO CLOUDS BELOW 12,000 FEET
WITH NO SIGNIFICANT WEATHER AND/OR OBSTRUCTIONS TO VISIBILITY.

KYZ001>023-026-027-061>063-070>075-210300-
WESTERN AND SOUTH CENTRAL KENTUCKY

CITY           SKY/WX    TMP DP  RH WIND       PRES   REMARKS
PADUCAH        CLEAR     78  68  71 SW6       29.97R
HENDERSON      CLEAR     70  63  78 S3        29.97R
OWENSBORO      PTCLDY    73  65  76 CALM      29.98R
HOPKINSVILLE   CLEAR     74  69  86 S3        30.00R
BOWLING GREEN  PTCLDY    69  66  90 E3        30.01R
GLASGOW        CLEAR     69  67  93 CALM      30.02R
$$

KYZ024-025-028>034-038-045-046-053-210300-
NORTH CENTRAL KENTUCKY

CITY           SKY/WX    TMP DP  RH WIND       PRES   REMARKS
LOUISVILLE/SDF MOCLDY    75  65  70 S5        29.98R
LOUISVILLE/LOU CLEAR     74  66  76 S3        29.99R
FORT KNOX      PTCLDY    69  64  85 SW3       29.99S
$$

KYZ035>037-039>044-047>052-055>060-089>105-210300-
NORTHEAST KENTUCKY

CITY           SKY/WX    TMP DP  RH WIND       PRES   REMARKS
LEXINGTON      CLEAR     72  64  76 S8        30.02R
COVINGTON      MOCLDY    68  64  87 S7        29.97F
FRANKFORT      CLEAR     68  64  87 S3        30.00R
$$

KYZ054-064>069-076>088-106>120-210300-
SOUTHEAST KENTUCKY

CITY           SKY/WX    TMP DP  RH WIND       PRES   REMARKS
JACKSON        CLEAR     70  63  78 CALM      30.06R
LONDON         CLEAR     69  63  81 CALM      30.06R
SOMERSET       MOCLDY    68  64  88 CALM      30.05F
MIDDLESBORO    CLEAR     65  61  87 CALM      30.08R
MONTICELLO     PTCLDY    65  63  93 CALM      30.06R
$$




USA.gov is the U.S. government's official web portal to all federal, state and local government web resources and services.